Voltar ao catálogo

ONEWEB-0234

AtivoComunicaçõesPO
NORAD 48783·PAYLOAD·🇬🇧 United Kingdom

Lançado May 28, 2021 de Vostochny Cosmodrome

Loading…

Próximas Passagens (próximas 24 horas)

TLE

AtualizadoSource: CelesTrak SupGP

Época: Sep 14, 2026, 20:10 UTC

1 48783C 21045S   26257.84081436  .00001931  00000+0  51358-2 0  2572
2 48783  87.8994 241.3105 0001259  96.2325 300.7868 13.15544560    14

Acompanhe ONEWEB-0234 em tempo real com AllMySat

Download on the App Store